Regional Weather Roundup
Issued by NWS Cleveland, OH

Home | Current Version | Previous Version | Graphics & Text | Print | Product List | Glossary On
Versions: 1 2 3 4 5 6 7 8 9 10 11 12 13 14 15 16 17 18 19 20 21 22 23 24 25 26 27 28 29 30 31 32 33 34 35 36 37 38 39 40 41 42 43 44 45 46 47 48 49 50
000
ASUS41 KCLE 231302
RWRCLE
OHIO REGIONAL WEATHER ROUNDUP
NATIONAL WEATHER SERVICE CLEVELAND, OH
900 AM EDT WED JUL 23 2014

NOTE: "FAIR" INDICATES FEW OR NO CLOUDS BELOW 12,000 FEET WITH NO
SIGNIFICANT WEATHER AND/OR OBSTRUCTIONS TO VISIBILITY.

OHZ001>008-015>018-024>027-034-035-043-044-231400-
   NORTHWEST OHIO

CITY           SKY/WX    TMP DP  RH WIND       PRES   REMARKS
DEFIANCE       CLOUDY    75  67  76 NW7       30.00R
FINDLAY        CLOUDY    72  68  87 SW9       29.98S
TOLEDO EXPRESS CLOUDY    71  66  84 NW7       29.98S
TOLEDO EXEC    CLOUDY    73  66  78 NW7       29.99R
LIMA           CLOUDY    72  68  87 W7        30.03R
$$

OHZ009>014-019>023-028>033-038-089-231400-
   NORTHEAST OHIO

CITY           SKY/WX    TMP DP  RH WIND       PRES   REMARKS
CLE-HOPKINS    CLOUDY    72  68  87 W9        29.98S
CLE-LAKEFRONT  CLOUDY    74  69  85 SW10      29.95R
CUY CO. ARPT   CLOUDY    75  72  88 W14       29.98R
LORAIN-ELYRIA  CLOUDY    75  68  78 W10       29.97F
ASHTABULA      CLOUDY    74  69  85 W13       29.97R
AKRON-CANTON   CLOUDY    74  66  76 W9        29.99F
WOOSTER        CLOUDY    72  67  84 W8        29.99F
MANSFIELD      CLOUDY    69  68  96 SW6       30.00F
YOUNGSTOWN     CLOUDY    75  69  81 W12G18    29.96S
$$

OHZ042-051>053-060>062-070>072-077>081-231400-
  SOUTHWEST OHIO

CITY           SKY/WX    TMP DP  RH WIND       PRES   REMARKS
CINC-COVINGTON CLOUDY    73  66  78 E5        30.09S THUNDER
CINC-LUNKEN    CLOUDY    73  67  81 SW5       30.07F
HAMILTON       NOT AVBL
DAYTON         LGT RAIN  69  66  90 S13       30.00F
WRIGHT-PAT AFB NOT AVBL
DAYTON GENERAL LGT RAIN  69  66  90 SE8       30.03F
WILMINGTON     CLOUDY    70  66  87 SE8       30.04F
$$

OHZ036-037-039>041-045>050-054>059-063>069-073>076-082>088-231400-
  CENTRAL AND SOUTHEAST OHIO

CITY           SKY/WX    TMP DP  RH WIND       PRES   REMARKS
COLUMBUS       LGT RAIN  75  65  70 CALM      30.03F
OSU AIRPORT    LGT RAIN  69  66  90 S10       30.01F FOG
BOLTON FIELD   NOT AVBL
RICKENBACK AFB LGT RAIN  73  62  68 SW5       30.03F
NEWARK         CLOUDY    73  67  81 SW3       30.03F
MARION         CLOUDY    69  65  86 S9G18     29.94
LANCASTER      CLOUDY    74  68  81 W6        30.05F
ZANESVILLE     PTSUNNY   75  68  78 W6        30.02S
NEW PHILLY     CLOUDY    75  70  84 MISG      30.01R
$$



USA.gov is the U.S. government's official web portal to all federal, state and local government web resources and services.